[[{"header":{"parameterUnit":"m.s-1","parameterCategory":1,"la1":30.2991,"la2":30.254,"lo1":-89.0895,"lo2":-89.0444,"dy":0.0017,"dx":0.0017,"nx":28,"ny":28,"refTime":"2024-02-14T03:00:00:Z","depth":0,"parameterNumber":2,"parameterNumberName":"U-component_of_WINDS"},"data":[0,0,0,0,0,0,0,0,0,0,0,0,0,0,0,0,0,0,0,0,0,0,0,0,0,0,0,0,0,0,0,0,0,0,0,0,0,0,0,0,0,0,0,0,0,0,0,0,0,0,0,0,0,0,0,0,0,0,1.0781,1.0782,0,1.0828,1.0828,1.0829,1.0812,1.0811,1.081,1.0809,1.0858,1.0861,1.0863,0,0,0,0,0,0,0,0,0,0,0,0,0,1.068,1.0682,1.0781,1.0782,1.0782,1.0828,1.0828,1.0829,1.0812,1.0811,1.0809,1.0808,1.0858,1.086,1.0863,0,0,0,0,0,0,0,0,0,0,0,0,0,1.0725,1.0683,1.0781,1.0779,1.0779,1.0828,1.0828,1.0829,1.0812,1.0811,1.0809,1.0808,1.0857,1.086,1.0863,1.0917,0,0,1.0874,1.0876,0,0,0,0,0,0,0,0,1.0723,1.0729,1.0779,1.0779,1.078,1.0812,1.0811,1.0859,1.0813,1.08,1.0809,1.0807,1.0844,1.0849,1.0861,1.0919,1.0921,1.0874,1.0876,1.0878,1.0879,0,0,0,0,0,0,0,1.0719,1.0727,1.08,1.078,1.078,1.0777,1.0782,1.082,1.0831,1.0801,1.08,1.0805,1.0844,1.0858,1.0862,1.0922,1.0874,1.0877,1.0879,1.0881,1.1028,1.103,0,0,0,0,0,0,1.0716,1.0724,1.0798,1.0801,1.0747,1.078,1.0785,1.0804,1.083,1.0833,1.0807,1.0804,1.0853,1.0858,1.0864,1.093,1.0878,1.0881,1.0883,1.1026,1.1029,1.1031,0,0,0,0,0,0,1.0714,1.0723,1.0796,1.0762,1.0771,1.0784,1.0804,1.0805,1.0819,1.0834,1.0837,1.0818,1.0852,1.0859,1.0904,1.0931,1.0883,1.0886,1.1024,1.1027,1.103,1.1061,0,0,0,0,0,0,1.0711,1.0722,1.0741,1.0763,1.0773,1.0835,1.0806,1.0807,1.0824,1.0822,1.0846,1.0848,1.0851,1.0899,1.0908,1.0935,1.0889,1.1022,1.1026,1.1029,1.1057,1.1064,1.107,0,0,0,0,0,1.0707,1.0748,1.0742,1.0751,1.0798,1.0836,1.0842,1.0844,1.0827,1.0847,1.0858,1.0848,1.0926,1.0904,1.0913,1.0942,1.102,1.1025,1.1029,1.1054,1.1063,1.107,0,0,0,0,0,0,1.073,1.0751,1.0745,1.0794,1.0813,1.0833,1.0859,1.0853,1.0878,1.0875,1.0876,1.0882,1.0929,1.094,1.0914,1.0996,1.0971,1.0977,1.0987,1.0995,1.1002,1.0999,1.0891,0,0,0,0,0,1.074,1.0769,1.0786,1.0828,1.0838,1.0847,1.0864,1.0863,1.0884,1.0893,1.0906,1.0927,1.0957,1.0977,1.1005,1.1058,1.1065,1.1083,1.1089,1.1095,1.11,1.1132,1.1141,1.1044,1.1044,1.1044,0,0,1.0763,1.0778,1.0796,1.0833,1.0848,1.0879,1.0854,1.0887,1.0911,1.0898,1.0942,1.0952,1.0976,1.1027,1.1049,1.1037,1.1128,1.11,1.1104,1.1107,1.1137,1.1146,1.1154,1.1047,1.1047,1.1046,0,0,1.0819,1.0833,1.087,1.0886,1.0909,1.0915,1.0924,1.0946,1.0952,1.0996,1.0988,1.1016,1.1066,1.1085,1.11,1.1166,1.1158,1.1175,1.1208,1.1239,1.1246,1.1253,1.1278,1.1287,1.118,1.118,1.118,0,1.0844,1.089,1.089,1.0925,1.0942,1.0931,1.097,1.0985,1.1017,1.103,1.1015,1.108,1.1095,1.1151,1.1167,1.1179,1.1191,1.1172,1.1245,1.1252,1.1258,1.1282,1.1292,1.1182,1.1182,1.1182,1.1182,0,1.092,1.0952,1.0979,1.101,1.1031,1.1067,1.1074,1.1095,1.1093,1.1101,1.1147,1.1165,1.1197,1.121,1.1208,1.1266,1.1258,1.1244,1.1219,1.127,1.1292,1.1301,1.1185,1.1184,1.1184,1.1183,0,0,1.0993,1.1024,1.1034,1.1049,1.1074,1.11,1.1136,1.1168,1.1186,1.1209,1.1241,1.1284,1.1273,1.1291,1.1291,1.1318,1.1371,1.1301,1.1302,1.1315,1.1438,1.1449,1.1459,1.1366,1.1367,1.1369,1.1436,0,1.1053,1.1116,1.1118,1.1177,1.1208,1.1199,1.1231,1.1251,1.126,1.1288,1.1297,1.1329,1.131,1.1321,1.1347,1.1359,1.1396,1.1354,1.1397,1.1399,1.1393,1.1471,1.1482,1.1545,1.1445,1.1447,1.1448,0,1.1131,1.1157,1.1218,1.1241,1.1254,1.1283,1.1313,1.1339,1.1363,1.1367,1.1388,1.1385,1.1424,1.1397,1.1452,1.1423,1.1441,1.145,1.1452,1.1457,1.1427,1.148,1.1565,1.1575,1.1461,1.146,1.1459,0,1.118,1.1229,1.1273,1.1286,1.1313,1.1334,1.1347,1.1368,1.1388,1.1414,1.1427,1.1458,1.1475,1.1499,1.1505,1.1485,1.1561,1.1534,1.1567,1.1568,1.1585,1.1584,1.1676,1.1594,1.1594,1.1593,1.1593,0,1.1248,1.1287,1.1296,1.1323,1.1367,1.1369,1.1413,1.1424,1.1443,1.1474,1.1467,1.1496,1.1501,1.1532,1.1537,1.1583,1.159,1.1596,1.1597,1.1597,1.1597,1.161,1.1607,1.1596,1.1595,1.1595,1.1594,0,1.131,1.1318,1.1365,1.1388,1.1394,1.1426,1.1445,1.1472,1.148,1.1519,1.1528,1.1541,1.1577,1.1585,1.1627,1.163,1.1685,1.1681,1.1678,1.1678,1.1712,1.1709,1.1816,1.1831,1.1738,1.1739,1.1739,0,1.1354,1.1384,1.1409,1.1429,1.1442,1.1474,1.1494,1.1498,1.1519,1.1548,1.1572,1.1607,1.1635,1.1693,1.1707,1.1739,1.1737,1.1773,1.1742,1.1742,1.174,1.1739,1.1743,1.1779,1.178,1.1781,1.1781,0,1.1431,1.1434,1.1462,1.1493,1.1517,1.1541,1.1564,1.1581,1.1588,1.1613,1.1649,1.1671,1.1714,1.175,1.1783,1.1797,1.1791,1.1791,1.1801,1.1802,1.1799,1.1803,1.1695,1.1788,1.1788,1.1787,1.1787,1.1787,1.1487,1.1513,1.1536,1.1569,1.1587,1.1609,1.1636,1.1647,1.1677,1.1713,1.1713,1.1754,1.1778,1.1821,1.1838,1.187,1.1859,1.1873,1.1877,1.1881,1.1885,1.1793,1.1876,1.1875,1.1875,1.1875,1.1875,0,1.1565,1.158,1.161,1.1643,1.1669,1.166,1.1686,1.1709,1.1744,1.1766,1.1794,1.1837,1.1872,1.1889,1.1923,1.1946,1.1945,1.1955,1.1954,1.1958,1.1891,1.188,1.1956,1.1956,1.1956,1.1956,1.1956,1.1956,1.1609,1.1655,1.166,1.1715,1.1729,1.1768,1.1784,1.1805,1.1823,1.1871,1.19,1.191,1.1931,1.1968,1.2,1.2004,1.2018,1.203,1.2033,1.1971,1.1963,1.1955,1.1944,1.2033,1.2033,1.2098,1.2099,1.2099]},{"header":{"parameterUnit":"m.s-1","parameterCategory":1,"la1":30.2991,"la2":30.254,"lo1":-89.0895,"lo2":-89.0444,"dy":0.0017,"dx":0.0017,"nx":28,"ny":28,"refTime":"2024-02-14T03:00:00:Z","depth":0,"parameterNumber":3,"parameterNumberName":"V-component_of_WINDS"},"data":[0,0,0,0,0,0,0,0,0,0,0,0,0,0,0,0,0,0,0,0,0,0,0,0,0,0,0,0,0,0,0,0,0,0,0,0,0,0,0,0,0,0,0,0,0,0,0,0,0,0,0,0,0,0,0,0,0,0,-3.2636,-3.2636,0,-3.2715,-3.2716,-3.2717,-3.2794,-3.2795,-3.2796,-3.2797,-3.2874,-3.2875,-3.2876,0,0,0,0,0,0,0,0,0,0,0,0,0,-3.2548,-3.2549,-3.2635,-3.2637,-3.2638,-3.2715,-3.2716,-3.2717,-3.2794,-3.2795,-3.2797,-3.2798,-3.2874,-3.2875,-3.2877,0,0,0,0,0,0,0,0,0,0,0,0,0,-3.2603,-3.255,-3.2635,-3.2685,-3.2691,-3.2715,-3.2716,-3.2718,-3.2794,-3.2795,-3.2797,-3.2798,-3.2873,-3.2875,-3.2877,-3.2857,0,0,-3.2882,-3.2883,0,0,0,0,0,0,0,0,-3.2599,-3.2606,-3.2677,-3.2682,-3.2688,-3.2747,-3.2714,-3.2764,-3.2794,-3.2755,-3.2797,-3.2799,-3.283,-3.2836,-3.2847,-3.286,-3.2864,-3.2882,-3.2883,-3.2884,-3.2884,0,0,0,0,0,0,0,-3.2596,-3.2603,-3.2667,-3.2678,-3.2685,-3.2703,-3.2713,-3.2724,-3.2783,-3.2758,-3.2764,-3.2773,-3.2833,-3.2845,-3.2849,-3.2865,-3.2882,-3.2883,-3.2884,-3.2885,-3.2869,-3.2868,0,0,0,0,0,0,-3.2585,-3.2599,-3.2664,-3.2669,-3.2647,-3.2704,-3.2714,-3.2726,-3.2783,-3.2793,-3.2771,-3.2776,-3.2842,-3.2847,-3.2852,-3.2835,-3.2884,-3.2885,-3.2886,-3.2871,-3.2869,-3.2867,0,0,0,0,0,0,-3.2582,-3.259,-3.2661,-3.2636,-3.2647,-3.2704,-3.2716,-3.2727,-3.2739,-3.2793,-3.2803,-3.2772,-3.2843,-3.285,-3.2856,-3.2839,-3.2886,-3.2887,-3.2872,-3.287,-3.2868,-3.2798,0,0,0,0,0,0,-3.258,-3.2588,-3.2581,-3.2635,-3.2648,-3.2664,-3.2715,-3.2727,-3.2742,-3.2749,-3.2797,-3.2806,-3.2845,-3.2853,-3.2858,-3.2842,-3.2889,-3.2874,-3.2871,-3.2869,-3.2802,-3.2794,-3.2787,0,0,0,0,0,-3.2576,-3.2557,-3.2581,-3.2588,-3.264,-3.2663,-3.267,-3.2716,-3.274,-3.2734,-3.2769,-3.2805,-3.284,-3.2853,-3.2859,-3.2843,-3.2875,-3.2872,-3.2869,-3.2806,-3.2796,-3.2787,0,0,0,0,0,0,-3.2496,-3.2564,-3.2592,-3.2589,-3.262,-3.2676,-3.2669,-3.2703,-3.2726,-3.2731,-3.2786,-3.2796,-3.2797,-3.2821,-3.2834,-3.2829,-3.2863,-3.2861,-3.2813,-3.2804,-3.2796,-3.279,-3.289,0,0,0,0,0,-3.2479,-3.2493,-3.2551,-3.2543,-3.2557,-3.261,-3.2622,-3.2655,-3.2688,-3.2701,-3.2737,-3.2767,-3.2785,-3.2796,-3.2815,-3.2807,-3.2819,-3.2799,-3.2791,-3.2784,-3.2782,-3.2782,-3.2774,-3.2857,-3.2857,-3.2857,0,0,-3.2442,-3.2481,-3.2485,-3.2528,-3.2556,-3.2569,-3.262,-3.2631,-3.2641,-3.2702,-3.2711,-3.2739,-3.2776,-3.2776,-3.2777,-3.2795,-3.2762,-3.278,-3.2775,-3.2776,-3.2778,-3.277,-3.2763,-3.2855,-3.2855,-3.2856,0,0,-3.2382,-3.2412,-3.241,-3.2438,-3.2481,-3.2517,-3.2517,-3.2568,-3.259,-3.26,-3.2648,-3.266,-3.269,-3.2715,-3.2732,-3.2686,-3.272,-3.2691,-3.265,-3.2649,-3.2643,-3.2637,-3.2622,-3.2616,-3.2688,-3.2688,-3.2688,0,-3.233,-3.2352,-3.2404,-3.2414,-3.2432,-3.2491,-3.249,-3.2514,-3.256,-3.2571,-3.2592,-3.2633,-3.2662,-3.2669,-3.2659,-3.267,-3.2672,-3.2685,-3.264,-3.2635,-3.263,-3.2617,-3.2611,-3.2684,-3.2685,-3.2685,-3.2685,0,-3.2287,-3.2302,-3.2295,-3.2342,-3.2359,-3.2362,-3.2416,-3.2427,-3.246,-3.2494,-3.2505,-3.2543,-3.2573,-3.2577,-3.2608,-3.259,-3.2601,-3.263,-3.2665,-3.2618,-3.2606,-3.2601,-3.2679,-3.268,-3.2681,-3.2682,0,0,-3.2175,-3.2254,-3.2251,-3.2274,-3.2327,-3.2339,-3.2347,-3.2379,-3.2388,-3.2418,-3.2426,-3.2452,-3.2481,-3.25,-3.2535,-3.2534,-3.2498,-3.2564,-3.2566,-3.2551,-3.2483,-3.2461,-3.2454,-3.2521,-3.2521,-3.252,-3.248,0,-3.2124,-3.2143,-3.2192,-3.2195,-3.2211,-3.2269,-3.2276,-3.231,-3.2343,-3.236,-3.2396,-3.2414,-3.245,-3.2462,-3.2465,-3.2502,-3.2485,-3.2505,-3.2529,-3.2529,-3.2518,-3.2447,-3.2423,-3.2383,-3.2476,-3.2475,-3.2474,0,-3.2066,-3.2097,-3.2102,-3.2158,-3.2166,-3.2172,-3.2207,-3.2223,-3.2263,-3.2287,-3.231,-3.235,-3.2362,-3.2396,-3.2413,-3.2426,-3.2439,-3.2459,-3.2459,-3.2462,-3.2499,-3.245,-3.2372,-3.2366,-3.2467,-3.2468,-3.2468,0,-3.1986,-3.2028,-3.2037,-3.2055,-3.212,-3.2123,-3.215,-3.2192,-3.2209,-3.2239,-3.2251,-3.2281,-3.2298,-3.232,-3.2368,-3.2388,-3.238,-3.2417,-3.2401,-3.24,-3.2396,-3.2395,-3.2319,-3.2404,-3.2404,-3.2404,-3.2404,0,-3.1924,-3.1924,-3.2003,-3.2008,-3.2012,-3.207,-3.2072,-3.2104,-3.2142,-3.2155,-3.2207,-3.2218,-3.228,-3.2298,-3.2335,-3.2345,-3.2352,-3.2372,-3.2382,-3.2367,-3.2365,-3.2376,-3.238,-3.2402,-3.2403,-3.2403,-3.2403,0,-3.1833,-3.1886,-3.19,-3.1963,-3.1979,-3.1979,-3.2032,-3.204,-3.2078,-3.2094,-3.2101,-3.216,-3.2185,-3.2235,-3.2272,-3.2298,-3.2299,-3.2316,-3.2286,-3.2292,-3.2273,-3.2275,-3.2202,-3.2196,-3.2283,-3.2282,-3.2282,0,-3.179,-3.1793,-3.1857,-3.1871,-3.1897,-3.1918,-3.1937,-3.1995,-3.2012,-3.2061,-3.2063,-3.2093,-3.212,-3.2157,-3.2202,-3.2232,-3.225,-3.2223,-3.2255,-3.2242,-3.2251,-3.2251,-3.2252,-3.2215,-3.2214,-3.2213,-3.2212,0,-3.1708,-3.1735,-3.1761,-3.1797,-3.1819,-3.185,-3.1883,-3.1891,-3.1957,-3.1974,-3.2001,-3.2022,-3.2064,-3.2092,-3.213,-3.2158,-3.2196,-3.2203,-3.2201,-3.2186,-3.2169,-3.2179,-3.2267,-3.2203,-3.2204,-3.2205,-3.2205,-3.2206,-3.1641,-3.1647,-3.1695,-3.1723,-3.1755,-3.1786,-3.1798,-3.1839,-3.1864,-3.1903,-3.1936,-3.1961,-3.2004,-3.2059,-3.2085,-3.2105,-3.2124,-3.212,-3.2119,-3.2118,-3.2113,-3.2166,-3.2112,-3.2112,-3.2113,-3.2113,-3.2113,0,-3.1563,-3.1597,-3.1623,-3.167,-3.1693,-3.173,-3.177,-3.1786,-3.1808,-3.1846,-3.1873,-3.1906,-3.1936,-3.1985,-3.2019,-3.2026,-3.2045,-3.2033,-3.2033,-3.2039,-3.2093,-3.2092,-3.2017,-3.2017,-3.2017,-3.2017,-3.2017,-3.2017,-3.1524,-3.1539,-3.1572,-3.1603,-3.1638,-3.1665,-3.1685,-3.1714,-3.1745,-3.1781,-3.1807,-3.184,-3.1883,-3.1921,-3.195,-3.1964,-3.1974,-3.1957,-3.1976,-3.2026,-3.2035,-3.2043,-3.2043,-3.1958,-3.1958,-3.192,-3.192,-3.192]}]]